[ ตารางข้อมูล ] [ Min-Max ] [ วันนี้4 ] [ วันนี้2 ] [ เทียบ3วัน A ] [ เทียบ4วัน B ]   

วันนี้2   [ ◀ ช่วงเก่ากว่า ] [ ช่วงที่ 202 ] [ ช่วงใหม่กว่า ▶ ] [ ล่าสุด ]    [ 3 ชั่วโมง ] [ 6 ชั่วโมง ] [ 12 ชั่วโมง ] [ 24 ชั่วโมง ]   วันนี้2

อุณภูมิตู้ Knockdown4529  ราย 3 ชั่วโมง  ที่วัดได้ ในช่วงวันเวลา 09/04/2026 (18:22) ถึง 09/04/2026 (21:22) 
ความชื้นในตู้ Knockdown4529  ราย 3 ชั่วโมง  ที่วัดได้ ในช่วงวันเวลา 09/04/2026 (18:22) ถึง 09/04/2026 (21:22) 

 
DS18B20SHTC3 
IDDate d/m/Y & Timedata1
สูง
data2
ต่ำ
data3
นอก
temp
pcb
hum
pcb
Time
 10352  09/04/2026 21:21:15  28.4  28.4  26.0  28.2  70.8  21:21 
 10351  09/04/2026 21:16:34  28.4  28.4  25.9  28.2  70.8  21:16 
 10350  09/04/2026 21:11:51  28.4  28.4  26.0  28.1  70.8  21:11 
 10349  09/04/2026 21:07:10  28.4  28.5  26.0  28.4  70.8  21:07 
 10348  09/04/2026 21:02:28  28.4  28.5  26.0  28.4  70.8  21:02 
 10347  09/04/2026 20:57:46  28.5  28.6  26.1  28.2  70.8  20:57 
 10346  09/04/2026 20:53:04  28.5  28.6  26.0  28.4  70.8  20:53 
 10345  09/04/2026 20:48:23  28.5  28.6  26.2  28.3  70.8  20:48 
 10344  09/04/2026 20:43:38  28.6  28.6  26.0  28.5  70.7  20:43 
 10343  09/04/2026 20:38:57  28.6  28.6  26.0  28.4  70.8  20:38 
 10342  09/04/2026 20:34:15  28.6  28.6  26.0  28.6  70.8  20:34 
 10341  09/04/2026 20:29:32  28.6  28.7  26.0  28.5  70.9  20:29 
 10340  09/04/2026 20:24:51  28.6  28.7  26.2  28.5  70.7  20:24 
 10339  09/04/2026 20:20:09  28.7  28.8  26.1  28.7  70.9  20:20 
 10338  09/04/2026 20:15:27  28.7  28.8  26.2  28.5  70.8  20:15 
 10337  09/04/2026 20:10:45  28.8  28.8  26.2  28.5  70.6  20:10 
 10336  09/04/2026 20:06:04  28.8  28.8  26.2  28.7  70.8  20:06 
 10335  09/04/2026 20:01:22  28.8  28.8  26.2  28.7  70.8  20:01 
 10334  09/04/2026 19:56:41  28.8  28.9  26.0  28.6  70.8  19:56 
 10333  09/04/2026 19:51:59  28.9  28.9  25.9  28.7  70.9  19:51 
 10332  09/04/2026 19:47:18  28.9  28.9  26.0  28.8  70.8  19:47 
 10331  09/04/2026 19:42:36  28.9  28.9  26.0  28.8  70.7  19:42 
 10330  09/04/2026 19:37:54  28.9  29.0  26.0  28.6  70.8  19:37 
 10329  09/04/2026 19:33:13  28.9  29.1  26.1  28.9  70.7  19:33 

Data every 5 minute.


ใช้เวลาประมวลผล 0.00341 วินาที